Content
SEND FEEDBACK

Daily
Averages
Monthly
Summary
Russia

ORENBURG, RUSSIA


Home > Europe > Russia
Elevation: 358 feet     Latitude: 51 45N     Longitude: 055 06E

WEATHER
 
SELECT A DAY
Number of Records: 161,258;   Date Range: 3/24/97 - 9/16/14
 
SHARE

PRINT THIS DATA

[ ← Previous Day ]
WEATHER ALMANAC - JANUARY 31, 2013
[ Next Day → ]
[ °C ]   °F
Weather ElementAverageHighLow
Temperature16.3 °F25 °F (6:00 pm)5 °F (12:00 am)
Dewpoint8.1 °F19.4 °F (3:00 pm)-7 °F (3:00 am)
Humidity68.6 %80 % (1:00 pm)38 % (3:00 am)
Barometer30.11 in30.29 in (3:00 am)29.89 in (10:00 pm)
Wind Speed13.2 mph20.1 mph (4:00 pm)
Weather ElementAverage
Visibility5.3 mi
Wind DirectionENE (52.5 °)

Weather ElementTotal
Precipitation---
Heating Degree Days50 (Base 65)
Averaged from 55 records on January 31, 2013
WEATHER CONDITIONS BREAKOUT
WIND DIRECTION BREAKOUT
WEATHER BY HOUR - JANUARY 31, 2013
[ °C ]   °F
Local TimeTemperatureDewpointHumidityBarometerVisibilityWind DirectionWind SpeedGust SpeedPrecipitationEventsConditions
12:00 AM5.0 °F-4.0 °F66 %30.27 in3.7 miVariable4.5 mphOvercast
12:30 AM5.0 °F-4.0 °F66 %30.27 in3.7 miENE (70°)8.9 mphOvercast
1:00 AM5.0 °F-4.0 °F66 %30.27 in3.7 miENE (60°)8.9 mphOvercast
1:30 AM6.8 °F-2.2 °F67 %30.27 in3.7 miENE (60°)6.7 mphOvercast
2:00 AM6.8 °F-2.2 °F67 %30.27 in3.7 miNNE (30°)11.2 mphOvercast
2:30 AM8.6 °F-2.2 °F62 %30.24 in3.7 miNE (40°)11.2 mphOvercast
3:00 AM10.4 °F-0.4 °F62 %30.24 in3.7 miNNE (30°)11.2 mphOvercast
3:00 AM6.0 °F-7.0 °F38 %30.29 in12.0 miEast (80°)4.5 mphOvercast
3:30 AM8.6 °F-0.4 °F67 %30.24 in3.7 miNNE (30°)11.2 mphOvercast
4:00 AM8.6 °F-0.4 °F67 %30.24 in3.7 miNNE (30°)11.2 mphOvercast
4:30 AM10.4 °F-0.4 °F62 %30.24 in3.7 miNNE (30°)8.9 mphOvercast
5:00 AM10.4 °F-0.4 °F62 %30.21 in3.7 miNNE (30°)11.2 mphOvercast
5:30 AM8.6 °F-0.4 °F67 %30.21 in3.7 miNNE (30°)8.9 mphOvercast
6:00 AM8.6 °F-0.4 °F67 %30.21 in3.7 miNNE (30°)8.9 mphOvercast
6:00 AM8.0 °F-6.0 °F38 %30.25 in12.0 miENE (60°)2.2 mphOvercast
6:30 AM8.6 °F-0.4 °F67 %30.21 in3.7 miNNE (30°)11.2 mphOvercast
7:00 AM10.4 °F-0.4 °F62 %30.21 in3.7 miNNE (30°)8.9 mphOvercast
7:30 AM10.4 °F1.4 °F67 %30.18 in3.7 miNNE (30°)13.4 mphMostly Cloudy
8:00 AM10.4 °F1.4 °F67 %30.18 in3.7 miNE (40°)13.4 mphMostly Cloudy
8:30 AM12.2 °F3.2 °F67 %30.18 in3.7 miNE (40°)11.2 mphMostly Cloudy
9:00 AM10.4 °F1.4 °F67 %30.18 in3.7 miNE (40°)13.4 mphMostly Cloudy
9:00 AM8.0 °F-5.0 °F40 %30.21 in12.0 miNNE (30°)2.2 mphOvercast
9:30 AM15.8 °F6.8 °F68 %30.15 in3.7 miNE (40°)11.2 mphMostly Cloudy
10:00 AM15.8 °F6.8 °F68 %30.15 inNE (50°)17.9 mphMostly Cloudy
10:30 AM14.0 °F6.8 °F73 %30.15 inNE (40°)15.7 mphOvercast
11:00 AM15.8 °F10.4 °F79 %30.15 inNE (50°)15.7 mphOvercast
11:30 AM17.6 °F10.4 °F73 %30.15 inNE (50°)15.7 mphOvercast
12:00 PM21.2 °F12.2 °F68 %30.12 inENE (60°)15.7 mphOvercast
12:00 PM18.0 °F6.0 °F44 %30.16 in12.0 miEast (80°)8.9 mphOvercast
12:30 PM21.2 °F14.0 °F74 %30.12 inENE (60°)13.4 mphOvercast
1:00 PM21.2 °F15.8 °F80 %30.12 inENE (70°)15.7 mphOvercast
1:30 PM23.0 °F17.6 °F80 %30.12 inEast (90°)15.7 mphOvercast
2:00 PM23.0 °F15.8 °F74 %30.09 inENE (70°)15.7 mphOvercast
2:30 PM23.0 °F17.6 °F80 %30.09 inENE (70°)13.4 mphOvercast
3:00 PM24.8 °F19.4 °F80 %30.06 inEast (80°)17.9 mphScattered Clouds
3:00 PM24.0 °F17.0 °F64 %30.08 in12.0 miEast (90°)13.4 mphOvercast
3:30 PM24.8 °F17.6 °F74 %30.06 inEast (80°)17.9 mphSnowLow Drifting Snow
4:00 PM24.8 °F19.4 °F80 %30.04 inEast (80°)20.1 mphSnowLow Drifting Snow
4:30 PM24.8 °F19.4 °F80 %30.04 inEast (80°)15.7 mphSnowLow Drifting Snow
5:00 PM24.8 °F19.4 °F80 %30.01 inENE (60°)15.7 mphSnowLow Drifting Snow
5:30 PM24.8 °F17.6 °F74 %30.01 inENE (60°)15.7 mphSnowLow Drifting Snow
6:00 PM23.0 °F17.6 °F80 %30.01 inENE (70°)17.9 mphSnowLow Drifting Snow
6:00 PM25.0 °F17.0 °F59 %30.01 in12.0 miEast (90°)11.2 mphOvercast
6:30 PM23.0 °F15.8 °F74 %29.98 inENE (60°)20.1 mphSnowLow Drifting Snow
7:00 PM23.0 °F15.8 °F74 %29.98 inNE (50°)20.1 mphSnowLow Drifting Snow
7:30 PM23.0 °F15.8 °F74 %29.95 in3.7 miNE (50°)20.1 mphSnowLow Drifting Snow
8:00 PM23.0 °F15.8 °F74 %29.95 in3.7 miNE (50°)17.9 mphSnowLow Drifting Snow
8:30 PM21.2 °F15.8 °F80 %29.95 in3.7 miNE (50°)20.1 mphSnowLow Drifting Snow
9:00 PM21.2 °F14.0 °F74 %29.92 in3.7 miENE (60°)17.9 mphSnowLow Drifting Snow
9:00 PM24.0 °F12.0 °F48 %29.95 in12.0 miEast (90°)8.9 mphClear
9:30 PM21.2 °F14.0 °F74 %29.92 in3.7 miNE (40°)13.4 mphOvercast
10:00 PM21.2 °F14.0 °F74 %29.89 in3.7 miNE (40°)17.9 mphOvercast
10:30 PM19.4 °F14.0 °F80 %29.89 in3.7 miNE (40°)15.7 mphOvercast
11:00 PM21.2 °F14.0 °F74 %29.89 in3.7 miNE (50°)15.7 mphOvercast
11:30 PM19.4 °F14.0 °F80 %29.89 in3.7 miNE (40°)15.7 mphOvercast
Hourly data recorded from UWOO, located miles away from Orenburg, Russia







STORIES FROM OUR PARTNERS